Date,TemperatureHighF,TemperatureAvgF,TemperatureLowF,DewpointHighF,DewpointAvgF,DewpointLowF,HumidityHigh,HumidityAvg,HumidityLow,PressureMaxIn,PressureMinIn,WindSpeedMaxMPH,WindSpeedAvgMPH,GustSpeedMaxMPH,PrecipitationSumIn
2013-5-1,82,70,61,66,59,50,81,68,47,30.15,29.94,8,3,13,0.00
2013-5-2,64,47,33,58,43,31,91,87,80,30.45,30.11,9,4,20,0.37
2013-5-3,49,40,33,37,33,31,91,78,53,30.42,30.11,11,5,26,0.43
2013-5-4,46,41,37,39,36,34,90,84,72,30.17,30.00,8,2,19,0.30
2013-5-5,57,48,35,50,43,32,90,83,71,30.25,30.16,5,1,15,0.01
2013-5-6,62,53,47,54,49,43,88,84,73,30.24,30.14,4,1,11,0.00
2013-5-7,76,61,44,59,51,42,92,71,45,30.22,30.08,3,0,7,0.01
2013-5-8,77,66,58,64,56,51,85,73,52,30.17,29.98,10,2,16,0.08
2013-5-9,75,65,59,65,59,55,86,80,65,30.07,29.96,11,2,28,2.28
2013-5-10,68,62,52,60,55,47,84,79,68,30.17,30.00,8,2,16,0.33
2013-5-11,73,59,46,59,47,38,83,67,34,30.33,30.17,7,1,18,0.00
2013-5-12,69,54,40,51,40,32,84,64,32,30.41,30.26,4,0,9,0.02
2013-5-13,64,54,50,50,45,43,80,73,59,30.29,30.24,10,1,18,0.00
2013-5-14,84,72,59,64,57,51,77,61,36,30.15,30.02,7,4,14,0.00
2013-5-15,74,67,62,67,60,53,83,76,67,30.06,29.93,9,4,17,0.34
2013-5-16,69,65,61,61,57,53,79,76,74,29.98,29.91,5,1,10,0.40
2013-5-17,81,70,60,68,60,51,77,71,59,30.03,29.95,3,0,8,0.01
2013-5-18,84,76,66,75,66,56,76,73,68,30.00,29.84,8,3,13,0.00
2013-5-19,84,77,68,70,66,61,77,69,54,29.94,29.69,11,6,20,0.02
2013-5-20,77,70,64,68,60,53,78,72,65,29.89,29.69,10,2,18,0.09
2013-5-21,66,62,59,56,51,47,72,68,65,29.99,29.71,9,2,25,0.46
2013-5-22,74,64,52,61,52,42,72,65,59,30.04,29.90,5,1,14,0.00
2013-5-23,73,64,55,62,53,43,72,67,58,30.26,30.04,3,1,9,0.00
2013-5-24,78,67,57,65,56,47,72,69,63,30.36,30.23,8,3,17,0.00
2013-5-25,80,70,60,68,60,51,73,70,65,30.32,30.13,8,3,13,0.00
2013-5-26,80,73,67,69,62,53,71,67,60,30.20,30.04,9,3,17,0.00
2013-5-27,82,75,68,70,62,53,71,66,55,30.06,29.86,11,6,18,0.00
2013-5-28,80,74,71,69,64,60,72,69,65,29.94,29.82,12,6,20,0.00
2013-5-29,78,74,70,68,64,60,72,71,69,29.95,29.80,8,4,16,0.00
2013-5-30,78,69,63,66,54,46,72,59,48,29.92,29.78,13,4,20,1.91
2013-5-31,83,76,65,70,59,47,66,56,47,29.89,29.72,10,4,19,0.05